Change the Weather History Date:

Monday, February 20, 2012

  Actual Average (KTCM) Record (KTCM)
Temperature  
Mean Temperature 39 °F -  
Max Temperature 46 °F 48 °F 63 °F (1995)
Min Temperature 32 °F 30 °F 19 °F (2006)
Degree Days  
Heating Degree Days 26    
Moisture  
Dew Point 39 °F    
Average Humidity 94    
Maximum Humidity 100    
Minimum Humidity 81    
Precipitation  
Precipitation 0.10 in - - ()
Sea Level Pressure  
Sea Level Pressure 29.95 in    
Wind  
Wind Speed 1 mph (South)    
Max Wind Speed 7 mph    
Max Gust Speed -    
Visibility 8 miles    
Events      
Averages and records for this station are not official NWS values.
T = Trace of Precipitation, MM = Missing Value Source: NWS Daily Summary

Daily Weather History Graph

Daily Weather History Graph

Search for Another Location

Airport or City:

Trip Planner

Search our weather history database for the weather conditions in past years. The results will help you decide how hot, cold, wet, or windy it might be!

Date:

Astronomy

Feb. 20, 2012 Rise Set
Actual Time 7:06 AM PST 5:40 PM PST
Civil Twilight 6:34 AM PST 6:11 PM PST
Nautical Twilight 5:59 AM PST 6:47 PM PST
Astronomical Twilight 5:24 AM PST 7:22 PM PST
Moon 6:07 AM PST (2/20) 4:50 PM PST (2/20)
Length of Visible Light 11h 36m
Length of Day
10h 34m
Waning Crescent, 1% of the Moon is Illuminated
Feb 20
Waning Crescent
Feb 21
New
Feb 29
First Quarter
Mar 8
Full
Mar 14
Last Quarter

Hourly Weather History & Observations

Time (PST) Temp. Windchill Dew Point Humidity Pressure Visibility Wind Dir Wind Speed Gust Speed Precip Events Conditions
12:15 AM 32.0 °F - 32.0 °F 100% 29.91 in 10.0 mi Calm Calm - N/A   Clear
12:35 AM 33.8 °F - 32.0 °F 93% 29.92 in 10.0 mi Calm Calm - N/A   Clear
12:55 AM 33.8 °F - 32.0 °F 93% 29.93 in 10.0 mi Calm Calm - N/A   Clear
1:15 AM 33.8 °F - 32.0 °F 93% 29.92 in 10.0 mi Calm Calm - N/A   Clear
1:35 AM 33.8 °F - 32.0 °F 93% 29.90 in 10.0 mi Calm Calm - N/A   Clear
1:55 AM 33.8 °F - 32.0 °F 93% 29.89 in 10.0 mi Calm Calm - N/A   Partly Cloudy
2:15 AM 33.8 °F - 32.0 °F 93% 29.89 in 10.0 mi Calm Calm - N/A   Mostly Cloudy
2:35 AM 35.6 °F - 32.0 °F 87% 29.88 in 10.0 mi Calm Calm - N/A   Overcast
2:55 AM 35.6 °F - 32.0 °F 87% 29.86 in 10.0 mi Calm Calm - N/A   Scattered Clouds
3:15 AM 35.6 °F - 32.0 °F 87% 29.87 in 10.0 mi Calm Calm - N/A   Mostly Cloudy
3:35 AM 35.6 °F - 32.0 °F 87% 29.87 in 10.0 mi Calm Calm - N/A   Mostly Cloudy
3:55 AM 35.6 °F - 32.0 °F 87% 29.86 in 10.0 mi Calm Calm - N/A   Overcast
4:15 AM 35.6 °F 32.8 °F 32.0 °F 87% 29.87 in 10.0 mi NE 3.5 mph - N/A   Overcast
4:35 AM 37.4 °F - 32.0 °F 81% 29.88 in 10.0 mi Calm Calm - N/A   Overcast
4:55 AM 37.4 °F - 32.0 °F 81% 29.88 in 10.0 mi Calm Calm - N/A   Overcast
5:15 AM 35.6 °F - 33.8 °F 93% 29.88 in 5.0 mi Calm Calm - N/A   Mostly Cloudy
5:35 AM 35.6 °F - 35.6 °F 100% 29.88 in 10.0 mi Calm Calm - N/A   Partly Cloudy
5:55 AM 35.6 °F 32.8 °F 33.8 °F 93% 29.88 in 10.0 mi SSE 3.5 mph - N/A   Partly Cloudy
6:35 AM 35.6 °F - 33.8 °F 93% 29.91 in 10.0 mi Calm Calm - N/A   Scattered Clouds
6:55 AM 35.6 °F 32.8 °F 33.8 °F 93% 29.91 in 8.0 mi ENE 3.5 mph - N/A   Partly Cloudy
7:15 AM 35.6 °F - 35.6 °F 100% 29.91 in 4.0 mi Calm Calm - N/A   Mostly Cloudy
7:35 AM 37.4 °F - 35.6 °F 93% 29.91 in 5.0 mi Calm Calm - N/A   Overcast
7:55 AM 37.4 °F - 37.4 °F 100% 29.91 in 8.0 mi Calm Calm - N/A   Scattered Clouds
8:15 AM 37.4 °F - 37.4 °F 100% 29.91 in 10.0 mi Calm Calm - N/A   Clear
8:35 AM 39.2 °F - 37.4 °F 93% 29.92 in 10.0 mi Calm Calm - N/A   Clear
9:15 AM 39.2 °F - 37.4 °F 93% 29.91 in 10.0 mi Calm Calm - N/A   Clear
9:35 AM 41.0 °F - 39.2 °F 93% 29.91 in 10.0 mi Calm Calm - N/A   Clear
9:55 AM 42.8 °F - 39.2 °F 87% 29.92 in 10.0 mi Calm Calm - N/A   Clear
10:35 AM 42.8 °F - 39.2 °F 87% 29.94 in 5.0 mi Calm Calm - N/A   Partly Cloudy
10:55 AM 42.8 °F - 41.0 °F 93% 29.95 in 1.2 mi Calm Calm - N/A   Light Drizzle
11:15 AM 42.8 °F - 42.8 °F 100% 29.95 in 1.0 mi Calm Calm - N/A   Light Drizzle
11:35 AM 42.8 °F - 42.8 °F 100% 29.96 in 1.2 mi Calm Calm - N/A   Overcast
11:55 AM 42.8 °F - 42.8 °F 100% 29.96 in 1.0 mi Calm Calm - N/A   Light Drizzle
12:15 PM 42.8 °F - 42.8 °F 100% 29.95 in 1.2 mi Calm Calm - 0.01 in   Light Drizzle
12:35 PM 42.8 °F - 42.8 °F 100% 29.96 in 1.0 mi Calm Calm - 0.01 in   Light Drizzle
12:55 PM 42.8 °F - 42.8 °F 100% 29.97 in 1.2 mi Calm Calm - 0.03 in   Drizzle
1:15 PM 44.6 °F 42.2 °F 44.6 °F 100% 29.96 in 2.0 mi SSW 4.6 mph - 0.02 in   Drizzle
2:15 PM 44.6 °F 43.1 °F 44.6 °F 100% 29.97 in 7.0 mi SSW 3.5 mph - N/A   Light Drizzle
2:35 PM 46.4 °F 42.9 °F 44.6 °F 93% 29.98 in 10.0 mi SSW 6.9 mph - N/A   Light Drizzle
2:55 PM 46.4 °F 44.3 °F 44.6 °F 93% 29.99 in 9.0 mi SW 4.6 mph - N/A   Light Drizzle
3:15 PM 46.4 °F 43.5 °F 44.6 °F 93% 30.00 in 8.0 mi SSW 5.8 mph - 0.01 in   Light Drizzle
3:55 PM 44.6 °F 41.4 °F 44.6 °F 100% 30.00 in 9.0 mi SSW 5.8 mph - 0.02 in   Drizzle
4:15 PM 44.6 °F 41.4 °F 44.6 °F 100% 30.01 in 8.0 mi SSW 5.8 mph - 0.01 in   Light Drizzle
4:35 PM 44.6 °F 41.4 °F 44.6 °F 100% 30.01 in 10.0 mi South 5.8 mph - 0.01 in   Light Drizzle
4:55 PM 44.6 °F 42.2 °F 44.6 °F 100% 30.01 in 10.0 mi South 4.6 mph - 0.01 in   Light Drizzle
5:15 PM 44.6 °F 42.2 °F 44.6 °F 100% 30.02 in 10.0 mi South 4.6 mph - 0.01 in   Drizzle
5:35 PM 44.6 °F 42.2 °F 44.6 °F 100% 30.02 in 10.0 mi South 4.6 mph - 0.02 in   Light Drizzle
5:55 PM 44.6 °F 41.4 °F 44.6 °F 100% 30.02 in 10.0 mi South 5.8 mph - 0.02 in   Scattered Clouds
6:15 PM 44.6 °F 41.4 °F 42.8 °F 93% 30.01 in 10.0 mi South 5.8 mph - N/A   Scattered Clouds
6:35 PM 44.6 °F 40.7 °F 42.8 °F 93% 29.99 in 10.0 mi South 6.9 mph - N/A   Clear
6:55 PM 44.6 °F 42.2 °F 42.8 °F 93% 30.00 in 10.0 mi South 4.6 mph - N/A   Clear
7:15 PM 44.6 °F 42.2 °F 42.8 °F 93% 30.01 in 10.0 mi South 4.6 mph - N/A   Scattered Clouds
7:35 PM 44.6 °F 41.4 °F 42.8 °F 93% 30.01 in 10.0 mi South 5.8 mph - N/A   Scattered Clouds
7:55 PM 46.4 °F 42.9 °F 42.8 °F 87% 30.01 in 10.0 mi South 6.9 mph - N/A   Partly Cloudy
8:15 PM 46.4 °F 44.3 °F 42.8 °F 87% 30.00 in 10.0 mi South 4.6 mph - N/A   Mostly Cloudy
8:35 PM 46.4 °F - 42.8 °F 87% 30.02 in 10.0 mi Calm Calm - N/A   Mostly Cloudy
8:55 PM 46.4 °F 45.2 °F 42.8 °F 87% 30.03 in 10.0 mi SSW 3.5 mph - N/A   Mostly Cloudy
9:15 PM 46.4 °F 43.5 °F 42.8 °F 87% 30.03 in 10.0 mi SSW 5.8 mph - N/A   Light Drizzle
9:35 PM 46.4 °F 43.5 °F 44.6 °F 93% 30.02 in 3.0 mi South 5.8 mph - N/A   Overcast
9:55 PM 44.6 °F 40.7 °F 44.6 °F 100% 30.03 in 10.0 mi South 6.9 mph - N/A   Overcast
10:15 PM 46.4 °F - 44.6 °F 93% 30.04 in 10.0 mi Calm Calm - N/A   Mostly Cloudy
10:35 PM 46.4 °F 43.5 °F 44.6 °F 93% 30.02 in 8.0 mi SSW 5.8 mph - N/A   Light Drizzle
10:55 PM 46.4 °F 43.5 °F 44.6 °F 93% 30.02 in 10.0 mi South 5.8 mph - N/A   Overcast
11:15 PM 46.4 °F 44.3 °F 44.6 °F 93% 30.03 in 10.0 mi South 4.6 mph - N/A   Mostly Cloudy
11:35 PM 46.4 °F 44.3 °F 44.6 °F 93% 30.03 in 10.0 mi South 4.6 mph - N/A   Scattered Clouds
11:55 PM 46.4 °F 44.3 °F 44.6 °F 93% 30.03 in 10.0 mi South 4.6 mph - N/A   Overcast